Weather History for Marrakech, Morocco

Change the Weather History Date:

Saturday, May 24, 2014

  Actual Average Record
Temperature  
Mean Temperature 67 °F -  
Max Temperature 79 °F 88 °F 99 °F (2012)
Min Temperature 55 °F 62 °F 51 °F (2007)
Cooling Degree Days 2    
Growing Degree Days 17 (Base 50)    
Moisture  
Dew Point 47 °F    
Average Humidity 53    
Maximum Humidity 88    
Minimum Humidity 24    
Precipitation  
Precipitation 0.00 in 0.01 in - ()
Sea Level Pressure  
Sea Level Pressure 29.99 in    
Wind  
Wind Speed 7 mph ()    
Max Wind Speed 17 mph    
Max Gust Speed 26 mph    
Visibility 6.2 miles    
Events      
Averages and records for this station are not official NWS values.
T = Trace of Precipitation, MM = Missing Value Source: Averaged Metar Reports

Daily Weather History Graph

Daily Weather History Graph

Search for Another Location

Airport:

Trip Planner

Search our weather history database for the weather conditions in past years. The results will help you decide how hot, cold, wet, or windy it might be!

Date:

Astronomy

May. 24, 2014 Rise Set
Actual Time 6:30 AM WEST 8:27 PM WEST
Civil Twilight 6:03 AM WEST 8:54 PM WEST
Nautical Twilight 5:30 AM WEST 9:27 PM WEST
Astronomical Twilight 4:55 AM WEST 10:03 PM WEST
Moon 3:34 AM WEST (5/24) 4:25 PM WEST (5/24)
Length of Visible Light 14h 51m
Length of Day
13h 56m
Waning Crescent, 20% of the Moon is Illuminated
May 24
Waning Crescent
May 28
New
Jun 5
First Quarter
Jun 13
Full
Jun 19
Last Quarter

Hourly Weather History & Observations

Time (WEST) Temp. Dew Point Humidity Pressure Visibility Wind Dir Wind Speed Gust Speed Precip Events Conditions
12:00 AM 62.6 °F 46.4 °F 55% 30.04 in 6.2 mi NNE 9.2 mph - N/A   Scattered Clouds
12:30 AM 60.8 °F 46.4 °F 59% 30.04 in 6.2 mi NNE 9.2 mph - N/A   Scattered Clouds
1:00 AM 61 °F 47 °F 50% 30.01 in 6 mi North 6.9 mph - -   Partly Cloudy
1:00 AM 60.8 °F 46.4 °F 59% 30.04 in 6.2 mi North 6.9 mph - N/A   Scattered Clouds
2:00 AM 59.0 °F 48.2 °F 67% 30.01 in 6.2 mi NNE 6.9 mph - N/A   Scattered Clouds
2:30 AM 59.0 °F 48.2 °F 67% 29.98 in 6.2 mi NNE 6.9 mph - N/A   Scattered Clouds
3:00 AM 59.0 °F 48.2 °F 67% 29.98 in 6.2 mi NNE 5.8 mph - N/A   Scattered Clouds
3:30 AM 59.0 °F 48.2 °F 67% 29.98 in 6.2 mi NNE 5.8 mph - N/A   Scattered Clouds
4:00 AM 58 °F 49 °F 65% 29.96 in 6 mi NNE 6.9 mph - -   Partly Cloudy
4:00 AM 59.0 °F 50.0 °F 72% 29.98 in 6.2 mi NNE 5.8 mph - N/A   Scattered Clouds
4:30 AM 57.2 °F 50.0 °F 77% 29.98 in 6.2 mi NNE 5.8 mph - N/A   Unknown
5:00 AM 57.2 °F 50.0 °F 77% 29.98 in 6.2 mi NNE 4.6 mph - N/A   Partly Cloudy
5:30 AM 57.2 °F 50.0 °F 77% 29.98 in 6.2 mi NNE 6.9 mph - N/A   Partly Cloudy
6:00 AM 57.2 °F 51.8 °F 82% 29.98 in 6.2 mi NNE 5.8 mph - N/A   Partly Cloudy
6:30 AM 57.2 °F 51.8 °F 82% 30.01 in 6.2 mi NNE 6.9 mph - N/A   Partly Cloudy
7:00 AM 56 °F 51 °F 80% 30.01 in 6 mi NNE 5.8 mph - -   Scattered Clouds
7:00 AM 55.4 °F 51.8 °F 88% 30.01 in 6.2 mi NE 5.8 mph - N/A   Partly Cloudy
7:30 AM 57.2 °F 51.8 °F 82% 30.01 in 6.2 mi NNE 6.9 mph - N/A   Unknown
8:00 AM 59.0 °F 51.8 °F 77% 30.01 in 6.2 mi NNE 5.8 mph - N/A   Partly Cloudy
8:30 AM 59.0 °F 50.0 °F 72% 30.01 in 6.2 mi NNE 5.8 mph - N/A   Partly Cloudy
9:00 AM 60.8 °F 50.0 °F 68% 30.01 in 6.2 mi East 4.6 mph - N/A   Partly Cloudy
9:30 AM 60.8 °F 50.0 °F 68% 30.01 in 6.2 mi Variable 3.5 mph - N/A   Scattered Clouds
10:00 AM 62 °F 49 °F 54% 29.99 in 6 mi North 3.5 mph - -   Mostly Cloudy
10:00 AM 62.6 °F 50.0 °F 63% 30.01 in 6.2 mi Variable 3.5 mph - N/A   Mostly Cloudy
10:30 AM 62.6 °F 50.0 °F 63% 30.01 in 6.2 mi North 3.5 mph - N/A   Scattered Clouds
11:00 AM 64.4 °F 48.2 °F 56% 30.01 in 6.2 mi Variable 4.6 mph - N/A   Scattered Clouds
11:30 AM 66.2 °F 46.4 °F 49% 30.01 in 6.2 mi NNE 5.8 mph - N/A   Scattered Clouds
12:00 PM 68.0 °F 44.6 °F 43% 30.01 in 6.2 mi NNE 8.1 mph - N/A   Scattered Clouds
12:30 PM 69.8 °F 44.6 °F 40% 30.01 in 6.2 mi NNE 5.8 mph - N/A   Scattered Clouds
1:00 PM 71 °F 43 °F 25% 29.95 in 6 mi East 6.9 mph - -   Partly Cloudy
1:00 PM 71.6 °F 42.8 °F 35% 30.01 in 6.2 mi Variable 6.9 mph - N/A   Scattered Clouds
1:30 PM 71.6 °F 42.8 °F 35% 30.01 in 6.2 mi Variable 6.9 mph - N/A   Scattered Clouds
2:00 PM 71.6 °F 42.8 °F 35% 29.98 in 6.2 mi NNW 6.9 mph - N/A   Scattered Clouds
2:30 PM 73.4 °F 42.8 °F 33% 29.98 in 6.2 mi Variable 6.9 mph 19.6 mph N/A   Scattered Clouds
3:00 PM 75.2 °F 44.6 °F 34% 29.98 in 6.2 mi Variable 5.8 mph - N/A   Scattered Clouds
3:30 PM 75.2 °F 44.6 °F 34% 29.95 in 6.2 mi Variable 3.5 mph - N/A   Scattered Clouds
4:00 PM 76 °F 46 °F 24% 29.88 in 6 mi NNE 9.2 mph - -   Partly Cloudy
4:00 PM 77.0 °F 46.4 °F 34% 29.95 in 6.2 mi NNE 9.2 mph - N/A   Scattered Clouds
4:30 PM 75.2 °F 46.4 °F 36% 29.95 in 6.2 mi North 6.9 mph - N/A   Scattered Clouds
5:00 PM 75.2 °F 46.4 °F 36% 29.95 in 6.2 mi NNW 4.6 mph - N/A   Scattered Clouds
5:30 PM 75.2 °F 46.4 °F 36% 29.95 in 6.2 mi NNE 8.1 mph - N/A   Scattered Clouds
6:00 PM 75.2 °F 48.2 °F 38% 29.95 in 6.2 mi North 9.2 mph - N/A   Scattered Clouds
6:30 PM 75.2 °F 48.2 °F 38% 29.95 in 6.2 mi NNW 9.2 mph - N/A   Scattered Clouds
7:00 PM 75 °F 46 °F 25% 29.91 in 6 mi NNW 8.1 mph - -   Partly Cloudy
7:00 PM 75.2 °F 46.4 °F 36% 29.95 in 6.2 mi North 8.1 mph - N/A   Scattered Clouds
7:30 PM 75.2 °F 46.4 °F 36% 29.98 in 6.2 mi North 9.2 mph - N/A   Scattered Clouds
8:00 PM 73.4 °F 46.4 °F 38% 29.98 in 6.2 mi NNW 8.1 mph - N/A   Partly Cloudy
8:30 PM 73.4 °F 44.6 °F 36% 29.98 in 6.2 mi North 8.1 mph - N/A   Partly Cloudy
9:00 PM 69.8 °F 46.4 °F 43% 29.98 in - North 13.8 mph - N/A   Clear
9:30 PM 68.0 °F 48.2 °F 49% 30.01 in - North 15.0 mph 26.5 mph N/A   Clear
10:00 PM 65 °F 47 °F 41% 30.00 in 6 mi North 13.8 mph - -   Clear
10:00 PM 66.2 °F 46.4 °F 49% 30.04 in - North 15.0 mph - N/A   Clear
10:30 PM 62.6 °F 46.4 °F 55% 30.04 in - NNE 17.3 mph - N/A   Clear
11:00 PM 62.6 °F 46.4 °F 55% 30.06 in - NNE 13.8 mph - N/A   Clear
11:30 PM 60.8 °F 46.4 °F 59% 30.06 in - NE 15.0 mph - N/A   Clear